^^
Your Local Weather - Clay, NY Station Historical Data
Daily Summary for November 18, 2017 Units:  English    Metric   Both
« Previous Day
Next Day »
Daily Weekly Monthly Yearly Custom
  High: Low: Average:
Temperature: 46.6 °F 25.6 °F 37.2 °F
Dew Point: 42.7 °F 20.9 °F 30.9 °F
Humidity: 94% 56% 78%
Wind Speed: 6.0mph 0.0mph 2.3mph
Wind Gust: 11.0mph - -
Wind- - ESE
Pressure: 29.96 in 29.11 in -
Precipitation: 0.40 in    
Historical Graphs
 
 
Tabular Data for November 18, 2017
Time Temperature Dew Point Pressure Wind Wind Speed Wind Gust Humidity Rainfall Rate (Hourly) solar
00:02 25.6 °F 21.7 °F 29.96 in Calm     85% 0.00 in 0 W/m2
00:08 25.6 °F 21.7 °F 29.96 in Calm   3.0 mph 85% 0.00 in 0 W/m2
00:14 26.0 °F 21.8 °F 29.95 in ESE 1.0 mph 1.0 mph 84% 0.00 in 0 W/m2
00:26 26.3 °F 21.6 °F 29.95 in Calm   1.0 mph 82% 0.00 in 0 W/m2
00:32 26.1 °F 21.1 °F 29.95 in Calm   1.0 mph 81% 0.00 in 0 W/m2
00:38 26.0 °F 21.0 °F 29.95 in SE 1.0 mph 1.0 mph 81% 0.00 in 0 W/m2
00:44 26.3 °F 21.3 °F 29.94 in Calm   1.0 mph 81% 0.00 in 0 W/m2
00:50 26.4 °F 21.4 °F 29.94 in SE 1.0 mph 1.0 mph 81% 0.00 in 0 W/m2
00:56 26.4 °F 21.1 °F 29.94 in SE 1.0 mph 1.0 mph 80% 0.00 in 0 W/m2
01:02 26.2 °F 20.9 °F 29.93 in SE 1.0 mph 2.0 mph 80% 0.00 in 0 W/m2
01:08 26.0 °F 21.0 °F 29.93 in SE 1.0 mph 2.0 mph 81% 0.00 in 0 W/m2
01:14 26.1 °F 21.1 °F 29.93 in SE 1.0 mph 2.0 mph 81% 0.00 in 0 W/m2
01:20 26.3 °F 21.3 °F 29.92 in SE 1.0 mph 2.0 mph 81% 0.00 in 0 W/m2
01:26 26.4 °F 21.4 °F 29.91 in ESE 1.0 mph 4.0 mph 81% 0.00 in 0 W/m2
01:32 26.7 °F 21.4 °F 29.90 in NE 3.0 mph 3.0 mph 80% 0.00 in 0 W/m2
01:38 27.0 °F 21.4 °F 29.90 in ENE 3.0 mph 5.0 mph 79% 0.00 in 0 W/m2
01:44 27.2 °F 21.8 °F 29.90 in East 3.0 mph 4.0 mph 80% 0.00 in 0 W/m2
01:50 27.6 °F 22.2 °F 29.89 in ENE 3.0 mph 4.0 mph 80% 0.00 in 0 W/m2
01:56 27.8 °F 22.4 °F 29.88 in ENE 4.0 mph 9.0 mph 80% 0.00 in 0 W/m2
02:02 28.0 °F 22.6 °F 29.88 in SE 3.0 mph 4.0 mph 80% 0.00 in 0 W/m2
02:08 28.0 °F 22.9 °F 29.88 in East 3.0 mph 5.0 mph 81% 0.00 in 0 W/m2
02:14 28.0 °F 22.9 °F 29.88 in East 3.0 mph 3.0 mph 81% 0.00 in 0 W/m2
02:20 27.8 °F 22.7 °F 29.88 in East 1.0 mph 1.0 mph 81% 0.00 in 0 W/m2
02:26 27.6 °F 22.5 °F 29.88 in Calm   1.0 mph 81% 0.00 in 0 W/m2
02:32 27.4 °F 22.3 °F 29.87 in East 1.0 mph 1.0 mph 81% 0.00 in 0 W/m2
02:38 27.2 °F 22.1 °F 29.87 in East 1.0 mph 1.0 mph 81% 0.00 in 0 W/m2
02:44 27.2 °F 22.1 °F 29.87 in East 1.0 mph 1.0 mph 81% 0.00 in 0 W/m2
02:50 27.0 °F 21.9 °F 29.87 in East 1.0 mph 5.0 mph 81% 0.00 in 0 W/m2
02:56 26.9 °F 21.8 °F 29.86 in East 1.0 mph 5.0 mph 81% 0.00 in 0 W/m2
03:02 27.0 °F 21.7 °F 29.86 in ENE 2.0 mph 2.0 mph 80% 0.00 in 0 W/m2
03:08 26.9 °F 21.6 °F 29.85 in ENE 2.0 mph 3.0 mph 80% 0.00 in 0 W/m2
03:14 26.9 °F 21.6 °F 29.85 in East 2.0 mph 4.0 mph 80% 0.00 in 0 W/m2
03:20 27.1 °F 21.7 °F 29.85 in East 3.0 mph 5.0 mph 80% 0.00 in 0 W/m2
03:26 27.1 °F 21.7 °F 29.85 in ENE 2.0 mph 5.0 mph 80% 0.00 in 0 W/m2
03:32 27.1 °F 21.7 °F 29.84 in ENE 1.0 mph 3.0 mph 80% 0.00 in 0 W/m2
03:38 27.2 °F 21.8 °F 29.84 in East 2.0 mph 3.0 mph 80% 0.00 in 0 W/m2
03:44 27.4 °F 22.0 °F 29.83 in ENE 3.0 mph 4.0 mph 80% 0.00 in 0 W/m2
03:50 27.6 °F 22.2 °F 29.82 in ENE 2.0 mph 7.0 mph 80% 0.00 in 0 W/m2
03:56 27.9 °F 22.5 °F 29.82 in ESE 3.0 mph 7.0 mph 80% 0.00 in 0 W/m2
04:02 28.0 °F 22.6 °F 29.82 in SE 3.0 mph 3.0 mph 80% 0.00 in 0 W/m2
04:08 28.0 °F 22.6 °F 29.81 in ENE 2.0 mph 5.0 mph 80% 0.00 in 0 W/m2
04:14 28.0 °F 22.6 °F 29.82 in East 2.0 mph 3.0 mph 80% 0.00 in 0 W/m2
04:20 28.1 °F 22.7 °F 29.81 in ENE 2.0 mph 3.0 mph 80% 0.00 in 0 W/m2
04:26 28.1 °F 22.4 °F 29.81 in East 2.0 mph 3.0 mph 79% 0.00 in 0 W/m2
04:32 28.1 °F 22.4 °F 29.81 in East 2.0 mph 2.0 mph 79% 0.00 in 0 W/m2
04:38 28.1 °F 22.4 °F 29.81 in ENE 3.0 mph 5.0 mph 79% 0.00 in 0 W/m2
04:44 28.2 °F 22.5 °F 29.80 in ENE 3.0 mph 4.0 mph 79% 0.00 in 0 W/m2
04:50 28.4 °F 22.4 °F 29.80 in ENE 3.0 mph 3.0 mph 78% 0.00 in 0 W/m2
04:56 28.5 °F 22.5 °F 29.79 in ENE 3.0 mph 7.0 mph 78% 0.00 in 0 W/m2
05:02 28.7 °F 22.7 °F 29.79 in ESE 3.0 mph 3.0 mph 78% 0.00 in 0 W/m2
05:08 28.8 °F 22.8 °F 29.79 in East 2.0 mph 3.0 mph 78% 0.00 in 0 W/m2
05:14 28.9 °F 22.9 °F 29.79 in ENE 3.0 mph 4.0 mph 78% 0.00 in 0 W/m2
05:20 28.9 °F 23.2 °F 29.78 in East 3.0 mph 3.0 mph 79% 0.00 in 0 W/m2
05:26 29.2 °F 23.5 °F 29.77 in ENE 3.0 mph 5.0 mph 79% 0.00 in 0 W/m2
05:32 29.6 °F 23.6 °F 29.77 in ENE 4.0 mph 4.0 mph 78% 0.00 in 0 W/m2
05:38 29.8 °F 24.1 °F 29.77 in East 3.0 mph 4.0 mph 79% 0.00 in 0 W/m2
05:44 30.0 °F 24.3 °F 29.76 in ENE 3.0 mph 4.0 mph 79% 0.00 in 0 W/m2
05:50 30.3 °F 24.3 °F 29.76 in ESE 4.0 mph 4.0 mph 78% 0.00 in 0 W/m2
05:56 30.5 °F 24.8 °F 29.75 in ENE 3.0 mph 7.0 mph 79% 0.00 in 0 W/m2
06:02 30.6 °F 24.6 °F 29.75 in ENE 3.0 mph 7.0 mph 78% 0.00 in 0 W/m2
06:08 30.6 °F 24.6 °F 29.75 in NE 4.0 mph 7.0 mph 78% 0.00 in 0 W/m2
06:14 30.6 °F 24.6 °F 29.74 in NE 4.0 mph 4.0 mph 78% 0.00 in 0 W/m2
06:20 30.6 °F 24.6 °F 29.74 in ENE 3.0 mph 3.0 mph 78% 0.00 in 0 W/m2
06:26 30.5 °F 24.5 °F 29.73 in ENE 3.0 mph 3.0 mph 78% 0.00 in 0 W/m2
06:32 30.4 °F 24.7 °F 29.73 in ENE 2.0 mph 3.0 mph 79% 0.00 in 0 W/m2
06:38 30.4 °F 24.7 °F 29.73 in East 3.0 mph 7.0 mph 79% 0.00 in 0 W/m2
06:44 30.7 °F 24.3 °F 29.72 in East 3.0 mph 5.0 mph 77% 0.00 in 0 W/m2
06:50 30.8 °F 24.4 °F 29.72 in ENE 3.0 mph 3.0 mph 77% 0.00 in 0 W/m2
06:56 31.0 °F 24.3 °F 29.73 in ENE 2.0 mph 4.0 mph 76% 0.00 in 5 W/m2
07:02 31.3 °F 24.3 °F 29.73 in ESE 2.0 mph 4.0 mph 75% 0.00 in 0 W/m2
07:08 31.4 °F 24.4 °F 29.73 in East 2.0 mph 4.0 mph 75% 0.00 in 0 W/m2
07:14 31.3 °F 24.3 °F 29.72 in East 2.0 mph 5.0 mph 75% 0.00 in 5 W/m2
07:20 31.6 °F 24.6 °F 29.72 in ENE 2.0 mph 4.0 mph 75% 0.00 in 9 W/m2
07:26 31.8 °F 24.5 °F 29.72 in ENE 3.0 mph 5.0 mph 74% 0.00 in 11 W/m2
07:32 31.9 °F 24.6 °F 29.72 in ENE 3.0 mph 4.0 mph 74% 0.00 in 9 W/m2
07:38 32.1 °F 24.7 °F 29.71 in ENE 3.0 mph 4.0 mph 74% 0.00 in 12 W/m2
07:44 32.2 °F 25.2 °F 29.71 in ENE 3.0 mph 7.0 mph 75% 0.00 in 16 W/m2
07:50 32.3 °F 25.3 °F 29.71 in ENE 3.0 mph 5.0 mph 75% 0.00 in 19 W/m2
07:56 32.6 °F 25.2 °F 29.71 in East 2.0 mph 5.0 mph 74% 0.00 in 23 W/m2
08:02 32.9 °F 25.5 °F 29.71 in East 2.0 mph 2.0 mph 74% 0.00 in 28 W/m2
08:08 33.1 °F 26.0 °F 29.71 in East 1.0 mph 5.0 mph 75% 0.00 in 30 W/m2
08:14 33.4 °F 26.0 °F 29.70 in East 2.0 mph 5.0 mph 74% 0.00 in 42 W/m2
08:20 33.8 °F 26.1 °F 29.70 in ENE 3.0 mph 3.0 mph 73% 0.00 in 44 W/m2
08:26 34.1 °F 26.3 °F 29.69 in ENE 3.0 mph 3.0 mph 73% 0.00 in 37 W/m2
08:32 34.3 °F 26.2 °F 29.68 in NE 3.0 mph 3.0 mph 72% 0.00 in 28 W/m2
08:38 34.4 °F 26.3 °F 29.70 in ESE 2.0 mph 3.0 mph 72% 0.00 in 26 W/m2
08:44 34.5 °F 27.1 °F 29.69 in ESE 2.0 mph 2.0 mph 74% 0.00 in 23 W/m2
08:50 34.4 °F 27.6 °F 29.68 in East 2.0 mph 5.0 mph 76% 0.00 in 26 W/m2
08:56 34.3 °F 28.2 °F 29.68 in East 2.0 mph 5.0 mph 78% 0.00 in 33 W/m2
09:02 34.4 °F 28.2 °F 29.67 in East 2.0 mph 5.0 mph 78% 0.00 in 42 W/m2
09:08 34.4 °F 28.6 °F 29.66 in ESE 3.0 mph 5.0 mph 79% 0.00 in 37 W/m2
09:14 34.6 °F 28.1 °F 29.65 in East 3.0 mph 6.0 mph 77% 0.00 in 33 W/m2
09:20 34.9 °F 28.4 °F 29.63 in East 3.0 mph 8.0 mph 77% 0.00 in 77 W/m2
09:26 35.3 °F 28.5 °F 29.63 in SSE 4.0 mph 8.0 mph 76% 0.00 in 105 W/m2
09:32 35.9 °F 29.1 °F 29.62 in ESE 3.0 mph 3.0 mph 76% 0.00 in 135 W/m2
09:38 36.6 °F 29.4 °F 29.62 in ENE 2.0 mph 4.0 mph 75% 0.00 in 121 W/m2
09:44 37.1 °F 29.2 °F 29.62 in ENE 3.0 mph 4.0 mph 73% 0.00 in 172 W/m2
09:50 37.6 °F 29.4 °F 29.62 in East 3.0 mph 3.0 mph 72% 0.00 in 102 W/m2
09:56 37.7 °F 28.8 °F 29.62 in ENE 2.0 mph 3.0 mph 70% 0.00 in 84 W/m2
10:02 37.8 °F 28.9 °F 29.62 in ENE 3.0 mph 5.0 mph 70% 0.00 in 63 W/m2
10:08 38.0 °F 28.7 °F 29.63 in ENE 2.0 mph 5.0 mph 69% 0.00 in 51 W/m2
10:14 38.2 °F 28.9 °F 29.64 in ENE 1.0 mph 2.0 mph 69% 0.00 in 39 W/m2
10:20 38.4 °F 28.8 °F 29.64 in Calm   1.0 mph 68% 0.00 in 49 W/m2
10:26 38.5 °F 29.2 °F 29.64 in ENE 1.0 mph 1.0 mph 69% 0.00 in 37 W/m2
10:28 38.5 °F 29.2 °F 29.64 in Calm   1.0 mph 69% 0.00 in 39 W/m2
10:34 38.6 °F 29.3 °F 29.63 in ENE 1.0 mph 2.0 mph 69% 0.00 in 39 W/m2
10:40 38.6 °F 28.9 °F 29.62 in ENE 1.0 mph 2.0 mph 68% 0.00 in 42 W/m2
10:46 38.6 °F 28.9 °F 29.62 in ENE 2.0 mph 4.0 mph 68% 0.00 in 37 W/m2
10:52 38.6 °F 29.3 °F 29.62 in East 2.0 mph 2.0 mph 69% 0.00 in 42 W/m2
10:58 38.7 °F 29.0 °F 29.62 in Calm   2.0 mph 68% 0.00 in 35 W/m2
11:04 38.8 °F 29.5 °F 29.61 in East 1.0 mph 3.0 mph 69% 0.00 in 40 W/m2
11:10 38.9 °F 29.6 °F 29.60 in East 1.0 mph 1.0 mph 69% 0.00 in 42 W/m2
11:16 39.0 °F 29.3 °F 29.59 in East 2.0 mph 3.0 mph 68% 0.00 in 39 W/m2
11:22 38.9 °F 29.2 °F 29.59 in East 2.0 mph 2.0 mph 68% 0.00 in 39 W/m2
11:28 39.0 °F 29.7 °F 29.59 in East 2.0 mph 2.0 mph 69% 0.00 in 40 W/m2
11:34 38.9 °F 29.6 °F 29.59 in East 2.0 mph 3.0 mph 69% 0.00 in 33 W/m2
11:40 38.8 °F 29.5 °F 29.58 in ENE 3.0 mph 3.0 mph 69% 0.00 in 39 W/m2
11:46 38.9 °F 29.6 °F 29.57 in ENE 2.0 mph 4.0 mph 69% 0.00 in 40 W/m2
11:52 39.1 °F 29.8 °F 29.57 in ENE 2.0 mph 3.0 mph 69% 0.00 in 39 W/m2
11:58 39.3 °F 30.0 °F 29.56 in ENE 2.0 mph 3.0 mph 69% 0.00 in 46 W/m2
12:04 39.6 °F 30.3 °F 29.56 in ENE 1.0 mph 3.0 mph 69% 0.00 in 46 W/m2
12:10 40.1 °F 30.4 °F 29.56 in ENE 1.0 mph 1.0 mph 68% 0.00 in 46 W/m2
12:16 40.8 °F 30.7 °F 29.55 in ENE 1.0 mph 1.0 mph 67% 0.00 in 42 W/m2
12:22 41.6 °F 30.7 °F 29.54 in SE 1.0 mph 6.0 mph 65% 0.00 in 47 W/m2
12:28 43.0 °F 30.1 °F 29.53 in SSE 2.0 mph 6.0 mph 60% 0.00 in 58 W/m2
12:34 43.7 °F 29.9 °F 29.54 in SSE 3.0 mph 6.0 mph 58% 0.00 in 56 W/m2
12:40 44.2 °F 29.9 °F 29.54 in SSE 3.0 mph 3.0 mph 57% 0.00 in 56 W/m2
12:46 44.4 °F 29.7 °F 29.52 in SSE 4.0 mph 7.0 mph 56% 0.00 in 58 W/m2
12:52 44.5 °F 29.8 °F 29.52 in SSE 4.0 mph 4.0 mph 56% 0.00 in 54 W/m2
12:58 44.6 °F 30.3 °F 29.52 in SSE 3.0 mph 4.0 mph 57% 0.00 in 56 W/m2
13:04 44.7 °F 30.0 °F 29.52 in SSE 3.0 mph 5.0 mph 56% 0.00 in 67 W/m2
13:10 44.9 °F 30.1 °F 29.51 in SSE 3.0 mph 5.0 mph 56% 0.00 in 74 W/m2
13:16 45.1 °F 30.8 °F 29.52 in SSE 2.0 mph 5.0 mph 57% 0.00 in 63 W/m2
13:22 45.2 °F 30.9 °F 29.51 in SSE 2.0 mph 2.0 mph 57% 0.00 in 65 W/m2
13:28 45.5 °F 31.1 °F 29.51 in SSE 3.0 mph 5.0 mph 57% 0.00 in 54 W/m2
13:36 45.6 °F 31.7 °F 29.51 in South 4.0 mph 5.0 mph 58% 0.00 in 58 W/m2
13:42 45.7 °F 31.8 °F 29.51 in South 3.0 mph 6.0 mph 58% 0.00 in 39 W/m2
13:48 45.8 °F 32.3 °F 29.51 in South 4.0 mph 6.0 mph 59% 0.00 in 37 W/m2
13:54 45.8 °F 32.3 °F 29.51 in SSE 3.0 mph 4.0 mph 59% 0.00 in 39 W/m2
14:00 45.8 °F 32.7 °F 29.50 in SSE 3.0 mph 3.0 mph 60% 0.00 in 26 W/m2
14:06 46.0 °F 33.3 °F 29.50 in SSW 3.0 mph 4.0 mph 61% 0.00 in 21 W/m2
14:12 46.0 °F 33.3 °F 29.50 in SSW 2.0 mph 4.0 mph 61% 0.00 in 18 W/m2
14:18 46.1 °F 34.2 °F 29.49 in South 2.0 mph 5.0 mph 63% 0.00 in 18 W/m2
14:24 46.2 °F 34.7 °F 29.49 in SSE 3.0 mph 6.0 mph 64% 0.00 in 19 W/m2
14:30 46.4 °F 35.3 °F 29.49 in South 3.0 mph 4.0 mph 65% 0.00 in 18 W/m2
14:36 46.5 °F 35.7 °F 29.48 in SSE 3.0 mph 4.0 mph 66% 0.00 in 21 W/m2
14:42 46.5 °F 36.1 °F 29.48 in South 4.0 mph 4.0 mph 67% 0.00 in 21 W/m2
14:48 46.5 °F 36.1 °F 29.48 in SSE 3.0 mph 4.0 mph 67% 0.00 in 18 W/m2
14:54 46.6 °F 36.6 °F 29.47 in SSW 4.0 mph 8.0 mph 68% 0.00 in 19 W/m2
15:00 46.5 °F 36.5 °F 29.46 in SSE 3.0 mph 3.0 mph 68% 0.00 in 18 W/m2
15:06 46.3 °F 36.3 °F 29.46 in South 3.0 mph 4.0 mph 68% 0.00 in 25 W/m2
15:14 46.2 °F 36.2 °F 29.45 in SE 5.0 mph 5.0 mph 68% 0.00 in 21 W/m2
15:20 46.1 °F 36.5 °F 29.45 in SSE 4.0 mph 5.0 mph 69% 0.00 in 21 W/m2
15:26 46.0 °F 36.8 °F 29.45 in South 3.0 mph 5.0 mph 70% 0.00 in 14 W/m2
15:32 45.8 °F 36.6 °F 29.45 in South 1.0 mph 3.0 mph 70% 0.00 in 7 W/m2
15:38 45.7 °F 36.8 °F 29.45 in SSE 2.0 mph 3.0 mph 71% 0.00 in 9 W/m2
15:44 45.6 °F 36.7 °F 29.44 in SE 3.0 mph 4.0 mph 71% 0.00 in 11 W/m2
15:50 45.5 °F 37.0 °F 29.44 in SSE 3.0 mph 3.0 mph 72% 0.00 in 11 W/m2
15:56 45.5 °F 37.3 °F 29.44 in SSE 3.0 mph 4.0 mph 73% 0.00 in 7 W/m2
16:02 45.4 °F 37.2 °F 29.44 in South 3.0 mph 3.0 mph 73% 0.00 in 5 W/m2
16:08 45.3 °F 37.5 °F 29.43 in SE 3.0 mph 4.0 mph 74% 0.00 in 0 W/m2
16:12 45.3 °F 37.5 °F 29.43 in SSE 3.0 mph 3.0 mph 74% 0.00 in 0 W/m2
16:18 45.3 °F 37.5 °F 29.43 in SSE 2.0 mph 3.0 mph 74% 0.00 in 0 W/m2
16:24 45.3 °F 37.8 °F 29.43 in South 2.0 mph 4.0 mph 75% 0.00 in 0 W/m2
16:30 45.3 °F 37.8 °F 29.42 in SSE 3.0 mph 3.0 mph 75% 0.00 in 0 W/m2
16:36 45.3 °F 38.2 °F 29.42 in SSE 3.0 mph 4.0 mph 76% 0.00 in 0 W/m2
16:42 45.2 °F 38.1 °F 29.42 in South 4.0 mph 11.0 mph 76% 0.00 in 0 W/m2
16:48 45.3 °F 38.2 °F 29.42 in SSE 5.0 mph 11.0 mph 76% 0.00 in 0 W/m2
16:54 45.3 °F 38.2 °F 29.41 in SE 6.0 mph 6.0 mph 76% 0.00 in 0 W/m2
17:00 45.3 °F 38.5 °F 29.41 in SE 6.0 mph 9.0 mph 77% 0.00 in 0 W/m2
17:06 45.2 °F 38.4 °F 29.41 in SSE 6.0 mph 9.0 mph 77% 0.00 in 0 W/m2
17:12 45.2 °F 38.4 °F 29.41 in SSE 5.0 mph 5.0 mph 77% 0.00 in 0 W/m2
17:18 45.2 °F 38.4 °F 29.41 in SE 5.0 mph 10.0 mph 77% 0.00 in 0 W/m2
17:24 45.1 °F 38.6 °F 29.41 in SE 5.0 mph 7.0 mph 78% 0.00 in 0 W/m2
17:30 44.8 °F 39.0 °F 29.40 in SSE 5.0 mph 5.0 mph 80% 0.00 in 0 W/m2
17:36 44.4 °F 39.2 °F 29.40 in SSE 4.0 mph 5.0 mph 82% 0.00 in 0 W/m2
17:42 44.0 °F 39.5 °F 29.40 in South 5.0 mph 5.0 mph 84% 0.15 in 0 W/m2
17:48 43.7 °F 39.5 °F 29.39 in SSE 4.0 mph 5.0 mph 85% 0.14 in 0 W/m2
17:54 43.3 °F 39.4 °F 29.38 in East 1.0 mph 3.0 mph 86% 0.16 in 0 W/m2
18:00 43.0 °F 39.4 °F 29.38 in East 1.0 mph 1.0 mph 87% 0.08 in 0 W/m2
18:06 42.8 °F 39.5 °F 29.38 in Calm   2.0 mph 88% 0.16 in 0 W/m2
18:12 42.6 °F 39.3 °F 29.38 in SE 1.0 mph 6.0 mph 88% 0.08 in 0 W/m2
18:18 42.5 °F 39.5 °F 29.38 in SE 1.0 mph 6.0 mph 89% 0.12 in 0 W/m2
18:24 42.4 °F 39.4 °F 29.37 in East 1.0 mph 2.0 mph 89% 0.07 in 0 W/m2
18:30 42.3 °F 39.6 °F 29.37 in ESE 1.0 mph 2.0 mph 90% 0.19 in 0 W/m2
18:36 42.2 °F 39.5 °F 29.37 in ENE 1.0 mph 2.0 mph 90% 0.13 in 0 W/m2
18:42 42.0 °F 39.3 °F 29.37 in ENE 1.0 mph 1.0 mph 90% 0.20 in 0 W/m2
18:48 41.9 °F 39.2 °F 29.37 in ENE 1.0 mph 1.0 mph 90% 0.21 in 0 W/m2
18:54 41.9 °F 39.5 °F 29.37 in SE 1.0 mph 2.0 mph 91% 0.38 in 0 W/m2
19:00 41.9 °F 39.5 °F 29.35 in SE 2.0 mph 2.0 mph 91% 0.26 in 0 W/m2
19:06 41.9 °F 39.5 °F 29.35 in SE 2.0 mph 2.0 mph 91% 0.12 in 0 W/m2
19:12 41.8 °F 39.4 °F 29.34 in SE 1.0 mph 1.0 mph 91% 0.11 in 0 W/m2
19:18 41.8 °F 39.4 °F 29.33 in ENE 1.0 mph 2.0 mph 91% 0.12 in 0 W/m2
19:24 41.8 °F 39.4 °F 29.33 in ESE 1.0 mph 2.0 mph 91% 0.12 in 0 W/m2
19:30 41.7 °F 39.3 °F 29.33 in ESE 1.0 mph 2.0 mph 91% 0.14 in 0 W/m2
19:36 41.7 °F 39.5 °F 29.33 in ESE 1.0 mph 3.0 mph 92% 0.10 in 0 W/m2
19:42 41.6 °F 39.4 °F 29.32 in ESE 2.0 mph 3.0 mph 92% 0.08 in 0 W/m2
19:48 41.6 °F 39.4 °F 29.32 in SE 2.0 mph 4.0 mph 92% 0.04 in 0 W/m2
19:54 41.5 °F 39.3 °F 29.31 in NNE 2.0 mph 3.0 mph 92% 0.00 in 0 W/m2
20:00 41.2 °F 39.1 °F 29.30 in NE 1.0 mph 1.0 mph 92% 0.00 in 0 W/m2
20:06 41.0 °F 38.9 °F 29.30 in ENE 2.0 mph 3.0 mph 92% 0.00 in 0 W/m2
20:12 40.8 °F 38.7 °F 29.30 in ENE 2.0 mph 2.0 mph 92% 0.18 in 0 W/m2
20:18 40.8 °F 38.7 °F 29.29 in ENE 1.0 mph 2.0 mph 92% 0.07 in 0 W/m2
20:24 40.7 °F 38.6 °F 29.28 in East 1.0 mph 3.0 mph 92% 0.04 in 0 W/m2
20:30 40.6 °F 38.5 °F 29.28 in East 2.0 mph 5.0 mph 92% 0.00 in 0 W/m2
20:36 40.4 °F 38.3 °F 29.27 in ENE 3.0 mph 5.0 mph 92% 0.00 in 0 W/m2
20:42 40.2 °F 38.1 °F 29.27 in NNE 3.0 mph 5.0 mph 92% 0.00 in 0 W/m2
20:48 40.0 °F 38.1 °F 29.26 in ENE 3.0 mph 5.0 mph 93% 0.00 in 0 W/m2
20:54 39.8 °F 37.7 °F 29.26 in ENE 4.0 mph 4.0 mph 92% 0.00 in 0 W/m2
21:00 39.7 °F 37.6 °F 29.25 in ENE 4.0 mph 4.0 mph 92% 0.00 in 0 W/m2
21:06 39.5 °F 37.6 °F 29.25 in ENE 3.0 mph 4.0 mph 93% 0.00 in 0 W/m2
21:12 39.4 °F 37.5 °F 29.25 in ENE 2.0 mph 3.0 mph 93% 0.00 in 0 W/m2
21:18 39.4 °F 37.5 °F 29.25 in ENE 3.0 mph 4.0 mph 93% 0.00 in 0 W/m2
21:24 39.4 °F 37.5 °F 29.24 in ENE 2.0 mph 3.0 mph 93% 0.00 in 0 W/m2
21:30 39.5 °F 37.6 °F 29.24 in ENE 2.0 mph 2.0 mph 93% 0.00 in 0 W/m2
21:36 39.6 °F 37.7 °F 29.24 in ENE 2.0 mph 2.0 mph 93% 0.04 in 0 W/m2
21:42 39.7 °F 37.8 °F 29.23 in ENE 2.0 mph 3.0 mph 93% 0.04 in 0 W/m2
21:48 39.8 °F 37.9 °F 29.23 in ENE 3.0 mph 4.0 mph 93% 0.04 in 0 W/m2
21:54 40.0 °F 38.1 °F 29.22 in ENE 3.0 mph 3.0 mph 93% 0.00 in 0 W/m2
22:00 40.1 °F 38.2 °F 29.22 in ENE 2.0 mph 3.0 mph 93% 0.00 in 0 W/m2
22:06 40.3 °F 38.4 °F 29.21 in ENE 3.0 mph 3.0 mph 93% 0.00 in 0 W/m2
22:20 40.5 °F 38.6 °F 29.19 in ENE 2.0 mph 2.0 mph 93% 0.00 in 0 W/m2
22:24 40.5 °F 38.6 °F 29.18 in ENE 2.0 mph 2.0 mph 93% 0.00 in 0 W/m2
22:26 40.5 °F 38.6 °F 29.18 in ENE 2.0 mph 2.0 mph 93% 0.00 in 0 W/m2
22:32 40.7 °F 38.8 °F 29.18 in ENE 2.0 mph 3.0 mph 93% 0.00 in 0 W/m2
22:38 40.9 °F 39.0 °F 29.18 in ENE 2.0 mph 3.0 mph 93% 0.00 in 0 W/m2
22:44 41.1 °F 39.2 °F 29.16 in ENE 2.0 mph 4.0 mph 93% 0.00 in 0 W/m2
22:50 41.3 °F 39.4 °F 29.15 in ENE 2.0 mph 2.0 mph 93% 0.00 in 0 W/m2
22:56 41.4 °F 39.5 °F 29.15 in Calm   2.0 mph 93% 0.00 in 0 W/m2
23:02 42.1 °F 40.2 °F 29.15 in ENE 1.0 mph 2.0 mph 93% 0.04 in 0 W/m2
23:08 42.5 °F 40.9 °F 29.15 in SE 2.0 mph 5.0 mph 94% 0.04 in 0 W/m2
23:14 43.5 °F 41.6 °F 29.15 in SE 1.0 mph 2.0 mph 93% 0.05 in 0 W/m2
23:20 43.4 °F 41.8 °F 29.14 in SE 1.0 mph 1.0 mph 94% 0.05 in 0 W/m2
23:26 42.7 °F 41.1 °F 29.13 in East 1.0 mph 3.0 mph 94% 0.05 in 0 W/m2
23:32 43.4 °F 41.5 °F 29.13 in East 1.0 mph 2.0 mph 93% 0.05 in 0 W/m2
23:36 43.9 °F 42.0 °F 29.13 in East 1.0 mph 2.0 mph 93% 0.04 in 0 W/m2
23:42 44.3 °F 42.7 °F 29.13 in East 1.0 mph 2.0 mph 94% 0.00 in 0 W/m2
23:48 43.9 °F 42.0 °F 29.11 in East 1.0 mph 2.0 mph 93% 0.00 in 0 W/m2
Country Meadow, Clay, NY, USA
Compliments of Weather Underground - 2 mb